"2010-12-31 00:00:00",469741,8.98,60.37,3.59,0.441,-5.327,94.76014,-14.03,-12.83,90.2,0,108.8,13.94,-13.33,22.4
"2010-12-31 00:00:30",469742,9.07,61.26,3.519,0.542,-5.509,94.7417,-14.08,-12.85,90.2,0,108.7,13.94,-13.38,23.3
"2010-12-31 00:01:00",469743,9.05,60.63,3.214,0.631,-5.541,94.73934,-14.08,-12.88,90.1,0,108.7,13.94,-13.38,22.6
"2010-12-31 00:01:30",469744,9.04,60.45,2.521,0.607,-5.326,94.72512,-14.12,-12.9,90,0,108.7,13.94,-13.42,22.5
"2010-12-31 00:02:00",469745,9.19,58.64,3.174,0.678,-5.348,94.7141,-14.15,-12.92,90,0,108.7,13.94,-13.45,20.6
"2010-12-31 00:02:30",469746,9.37,59.24,3.118,0.606,-5.254,94.71346,-14.15,-12.91,90.1,0,108.7,13.94,-13.45,21.2
"2010-12-31 00:03:00",469747,9.36,58.48,3.334,0.612,-5.288,94.71204,-14.15,-12.93,90.1,0,108.7,13.94,-13.45,20.5
"2010-12-31 00:03:30",469748,9.23,58.4,2.485,0.615,-5.217,94.71023,-14.16,-12.93,90.1,0,108.7,13.93,-13.46,20.4
"2010-12-31 00:04:00",469749,9.33,58.99,3.401,0.579,-5.339,94.70658,-14.17,-12.95,90.1,0,108.8,13.93,-13.46,21.0
"2010-12-31 00:04:30",469750,9.27,58.54,3.495,0.402,-5.102,94.70712,-14.17,-12.95,90,0,108.7,13.93,-13.46,20.5
"2010-12-31 00:05:00",469751,9.41,58.86,3.906,0.358,-5.113,94.70874,-14.16,-12.97,90,0,108.7,13.93,-13.46,20.9
"2010-12-31 00:05:30",469752,9.26,59.4,3.545,0.445,-4.867,94.70739,-14.16,-12.96,90.1,0,108.7,13.93,-13.46,21.4
"2010-12-31 00:06:00",469753,9.02,60.58,3.741,0.626,-5.325,94.70683,-14.17,-12.98,90.1,0,108.7,13.93,-13.46,22.6
"2010-12-31 00:06:30",469754,8.96,61.98,3.592,0.591,-5.296,94.69815,-14.19,-12.97,90.1,0,108.7,13.93,-13.49,24.0
"2010-12-31 00:07:00",469755,8.89,63.51,3.543,0.509,-5.361,94.68394,-14.22,-13,90,0,108.7,13.94,-13.52,25.5
"2010-12-31 00:07:30",469756,8.79,64.88,3.578,0.481,-5.322,94.67598,-14.24,-13.02,89.9,0,108.7,13.94,-13.54,26.9
"2010-12-31 00:08:00",469757,8.67,65.25,3.625,0.511,-5.557,94.67567,-14.24,-13.05,89.9,0,108.7,13.94,-13.54,27.2
"2010-12-31 00:08:30",469758,8.54,64.95,3.557,0.511,-5.616,94.66936,-14.26,-13.04,89.9,0,108.7,13.94,-13.56,26.9
"2010-12-31 00:09:00",469759,8.47,64.68,3.928,0.522,-5.56,94.66599,-14.27,-13.06,89.9,0,108.7,13.94,-13.57,26.7
"2010-12-31 00:09:30",469760,8.6,65.14,3.498,0.464,-5.467,94.66169,-14.28,-13.06,89.9,0,108.7,13.94,-13.58,27.1
"2010-12-31 00:10:00",469761,8.64,65.67,3.656,0.442,-5.392,94.654,-14.3,-13.08,90,0,108.8,13.94,-13.60,27.7
"2010-12-31 00:10:30",469762,8.45,67.88,3.704,0.561,-5.698,94.65114,-14.31,-13.08,90,0,108.7,13.94,-13.61,29.9
"2010-12-31 00:11:00",469763,8.35,69.74,3.602,0.622,-5.627,94.64744,-14.32,-13.07,90,0,108.7,13.94,-13.62,31.7
"2010-12-31 00:11:30",469764,8.24,71.49,3.552,0.498,-5.647,94.64319,-14.33,-13.1,89.9,0,108.7,13.94,-13.63,33.5
"2010-12-31 00:12:00",469765,8.26,72.47,3.132,0.576,-5.893,94.6301,-14.36,-13.13,89.8,0,108.8,13.95,-13.66,34.5
"2010-12-31 00:12:30",469766,8.32,70.08,3.946,0.486,-5.745,94.61645,-14.4,-13.15,89.8,0,108.7,13.95,-13.69,32.1
"2010-12-31 00:13:00",469767,8.22,70.43,4.004,0.492,-5.875,94.60963,-14.41,-13.17,89.8,0,108.7,13.95,-13.71,32.4
"2010-12-31 00:13:30",469768,8.25,69.89,3.722,0.497,-5.657,94.60935,-14.41,-13.18,89.8,0,108.7,13.95,-13.71,31.9
"2010-12-31 00:14:00",469769,8.19,71.05,4.058,0.523,-5.949,94.60935,-14.41,-13.2,89.8,0,108.8,13.95,-13.71,33.1
"2010-12-31 00:14:30",469770,8.28,70.06,4.059,0.536,-5.858,94.60878,-14.41,-13.21,89.8,0,108.7,13.95,-13.71,32.1
"2010-12-31 00:15:00",469771,8.19,69.87,4.024,0.477,-5.809,94.60735,-14.42,-13.22,89.9,0,108.7,13.95,-13.72,31.9
"2010-12-31 00:15:30",469772,8.17,70.39,3.562,0.489,-5.806,94.60509,-14.42,-13.23,89.9,0,108.7,13.95,-13.72,32.4
"2010-12-31 00:16:00",469773,8.15,69.9,3.632,0.587,-5.941,94.59854,-14.44,-13.24,89.9,0,108.7,13.95,-13.74,31.9
"2010-12-31 00:16:30",469774,8.07,70.34,3.655,0.593,-6.002,94.59485,-14.45,-13.24,89.9,0,108.7,13.95,-13.75,32.3
"2010-12-31 00:17:00",469775,8.08,70.79,4,0.509,-6.045,94.5883,-14.47,-13.24,89.9,0,108.7,13.95,-13.77,32.8
"2010-12-31 00:17:30",469776,8.13,70.66,3.109,0.614,-5.777,94.5866,-14.47,-13.25,89.9,0,108.7,13.95,-13.77,32.7
"2010-12-31 00:18:00",469777,8.27,72.02,3.153,0.669,-6.02,94.58945,-14.46,-13.27,90,0,108.7,13.95,-13.76,34.0
"2010-12-31 00:18:30",469778,8.36,71.52,3.951,0.47,-5.925,94.59597,-14.45,-13.24,90,0,108.7,13.95,-13.75,33.5
"2010-12-31 00:19:00",469779,8.4,73.29,3.576,0.449,-6.02,94.59172,-14.46,-13.27,90,0,108.7,13.95,-13.76,35.3
"2010-12-31 00:19:30",469780,8.38,74.04,3.461,0.573,-5.972,94.58573,-14.47,-13.26,90,0,108.7,13.95,-13.77,36.0
"2010-12-31 00:20:00",469781,8.5,74.01,3.527,0.45,-6.027,94.58347,-14.48,-13.26,90,0,108.7,13.95,-13.78,36.0
"2010-12-31 00:20:30",469782,8.37,75.16,3.924,0.565,-5.961,94.58174,-14.48,-13.26,90,0,108.7,13.95,-13.78,37.2
"2010-12-31 00:21:00",469783,8.48,76.74,4.139,0.523,-5.951,94.57739,-14.49,-13.28,89.9,0,108.7,13.95,-13.79,38.7
"2010-12-31 00:21:30",469784,8.53,78.33,3.598,0.438,-5.897,94.57657,-14.5,-13.3,89.9,0,108.7,13.95,-13.80,40.3
"2010-12-31 00:22:00",469785,8.52,78.71,4.076,0.504,-6.048,94.56861,-14.52,-13.31,89.8,0,108.7,13.95,-13.82,40.7
"2010-12-31 00:22:30",469786,8.61,80.1,4.079,0.482,-6.097,94.55466,-14.55,-13.31,89.8,0,108.7,13.95,-13.85,42.1
"2010-12-31 00:23:00",469787,8.53,81.4,3.589,0.589,-6.177,94.54556,-14.58,-13.34,89.7,0,108.7,13.95,-13.87,43.4
"2010-12-31 00:23:30",469788,8.54,82.2,3.115,0.616,-6.14,94.53989,-14.59,-13.35,89.7,0,108.7,13.95,-13.89,44.2
"2010-12-31 00:24:00",469789,8.71,84.7,3.269,0.589,-6.345,94.522,-14.63,-13.39,89.6,0,108.7,13.95,-13.93,46.7
"2010-12-31 00:24:30",469790,8.59,85.1,3.157,0.698,-6.466,94.50971,-14.67,-13.39,89.6,0,108.7,13.95,-13.97,47.1
"2010-12-31 00:25:00",469791,8.61,85.5,2.706,0.758,-6.479,94.50344,-14.68,-13.42,89.5,0,108.7,13.95,-13.98,47.5
"2010-12-31 00:25:30",469792,8.72,84.8,2.676,0.747,-6.315,94.48464,-14.73,-13.45,89.5,0,108.7,13.95,-14.03,46.8
"2010-12-31 00:26:00",469793,8.99,84,2.727,0.682,-6.494,94.47725,-14.75,-13.47,89.4,0,108.7,13.96,-14.05,46.0
"2010-12-31 00:26:30",469794,8.97,84.6,2.651,0.762,-6.464,94.4753,-14.75,-13.47,89.4,0,108.7,13.96,-14.05,46.6
"2010-12-31 00:27:00",469795,8.91,86.2,3.803,0.691,-6.369,94.46275,-14.79,-13.53,89.4,0,108.7,13.96,-14.09,48.2
"2010-12-31 00:27:30",469796,9.06,84.4,2.716,0.683,-6.323,94.44968,-14.82,-13.54,89.4,0,108.7,13.96,-14.12,46.4
"2010-12-31 00:28:00",469797,9.19,82.6,3.46,0.481,-6.33,94.44511,-14.83,-13.54,89.4,0,108.7,13.96,-14.13,44.6
"2010-12-31 00:28:30",469798,9.02,82.7,3.819,0.627,-6.236,94.4417,-14.84,-13.54,89.4,0,108.7,13.96,-14.14,44.7
"2010-12-31 00:29:00",469799,8.99,85.3,1.986,0.721,-6.444,94.44198,-14.84,-13.59,89.5,0,108.7,13.96,-14.14,47.3
"2010-12-31 00:29:30",469800,9.15,85.6,3.079,0.701,-6.218,94.4409,-14.84,-13.58,89.5,0,108.7,13.96,-14.14,47.6
"2010-12-31 00:30:00",469801,9.58,83.9,3.58,0.623,-6.325,94.44117,-14.84,-13.6,89.5,0,108.7,13.96,-14.14,45.9
"2010-12-31 00:30:30",469802,9.34,86.3,3.57,0.764,-6.392,94.43485,-14.86,-13.6,89.5,0,108.7,13.96,-14.16,48.3
"2010-12-31 00:31:00",469803,9.15,86.6,3.121,0.701,-6.351,94.41727,-14.9,-13.64,89.4,0,108.7,13.96,-14.20,48.6
"2010-12-31 00:31:30",469804,9,85.8,2.714,0.689,-6.275,94.41747,-14.9,-13.66,89.5,0,108.7,13.96,-14.20,47.8
"2010-12-31 00:32:00",469805,9.14,83.6,3.33,0.604,-6.167,94.41654,-14.9,-13.65,89.5,0,108.7,13.96,-14.20,45.6
"2010-12-31 00:32:30",469806,8.97,83.7,2.565,0.761,-6.354,94.41875,-14.9,-13.65,89.5,0,108.7,13.96,-14.20,45.7
"2010-12-31 00:33:00",469807,9.22,81.2,3.139,0.61,-6.286,94.42095,-14.89,-13.65,89.5,0,108.7,13.96,-14.19,43.2
"2010-12-31 00:33:30",469808,9.16,82,3.161,0.694,-6.105,94.42123,-14.89,-13.67,89.6,0,108.7,13.96,-14.19,44.0
"2010-12-31 00:34:00",469809,9.29,81.6,3.262,0.592,-6.316,94.42417,-14.88,-13.67,89.6,0,108.7,13.96,-14.18,43.6
"2010-12-31 00:34:30",469810,9.14,79.42,3.129,0.689,-6.233,94.42336,-14.89,-13.67,89.6,0,108.7,13.96,-14.19,41.4
"2010-12-31 00:35:00",469811,9.26,79.22,3.076,0.692,-6.307,94.42612,-14.88,-13.66,89.7,0,108.7,13.96,-14.18,41.2
"2010-12-31 00:35:30",469812,9.22,79.61,3.018,0.689,-6.082,94.42722,-14.88,-13.66,89.7,0,108.7,13.96,-14.18,41.6
"2010-12-31 00:36:00",469813,9.16,79.04,2.74,0.672,-6.159,94.43758,-14.85,-13.67,89.7,0,108.7,13.96,-14.15,41.0
"2010-12-31 00:36:30",469814,9.03,77.73,3.059,0.768,-6.196,94.44778,-14.82,-13.66,89.8,0,108.7,13.96,-14.12,39.7
"2010-12-31 00:37:00",469815,9.35,77.75,2.833,0.684,-6.176,94.45458,-14.81,-13.66,89.8,0,108.7,13.96,-14.11,39.8
"2010-12-31 00:37:30",469816,9.13,79.17,2.67,0.687,-6.102,94.4531,-14.81,-13.67,89.8,0,108.7,13.96,-14.11,41.2
"2010-12-31 00:38:00",469817,9.27,78.7,2.694,0.691,-6.208,94.4548,-14.81,-13.66,89.8,0,108.7,13.96,-14.11,40.7
"2010-12-31 00:38:30",469818,9.28,78.14,3.172,0.692,-6.175,94.45755,-14.8,-13.65,89.8,0,108.7,13.96,-14.10,40.1
"2010-12-31 00:39:00",469819,9.32,80.5,2.698,0.767,-6.224,94.45809,-14.8,-13.65,89.8,0,108.7,13.96,-14.10,42.5
"2010-12-31 00:39:30",469820,9.45,81.3,3.086,0.61,-6.109,94.458,-14.8,-13.65,89.8,0,108.7,13.96,-14.10,43.3
"2010-12-31 00:40:00",469821,9.6,80.5,2.575,0.612,-6.241,94.4491,-14.82,-13.65,89.7,0,108.7,13.96,-14.12,42.5
"2010-12-31 00:40:30",469822,9.94,83.9,3.016,0.786,-6.526,94.43462,-14.86,-13.65,89.6,0,108.7,13.96,-14.16,45.9
"2010-12-31 00:41:00",469823,9.78,80.2,3.458,0.699,-6.348,94.4261,-14.88,-13.68,89.5,0,108.7,13.96,-14.18,42.2
"2010-12-31 00:41:30",469824,9.66,78.69,3.343,0.688,-6.094,94.4175,-14.9,-13.69,89.4,0,108.7,13.96,-14.20,40.7
"2010-12-31 00:42:00",469825,9.98,77.61,3.142,0.514,-6.3,94.40292,-14.94,-13.71,89.4,0,108.7,13.96,-14.24,39.6
"2010-12-31 00:42:30",469826,9.48,76.04,2.722,0.775,-6.178,94.40262,-14.94,-13.71,89.4,0,108.7,13.96,-14.24,38.0
"2010-12-31 00:43:00",469827,9.68,77.69,2.785,0.694,-6.338,94.40768,-14.93,-13.72,89.5,0,108.7,13.96,-14.23,39.7
"2010-12-31 00:43:30",469828,9.78,78.48,2.614,0.706,-6.351,94.40229,-14.94,-13.73,89.5,0,108.7,13.96,-14.24,40.5
"2010-12-31 00:44:00",469829,9.67,77.31,2.263,0.721,-6.283,94.39971,-14.95,-13.74,89.5,0,108.7,13.97,-14.25,39.3
"2010-12-31 00:44:30",469830,9.58,77.17,3.016,0.81,-6.301,94.39549,-14.96,-13.74,89.5,0,108.7,13.96,-14.26,39.2
"2010-12-31 00:45:00",469831,9.63,74.95,2.614,0.768,-6.143,94.39772,-14.95,-13.75,89.5,0,108.7,13.97,-14.25,36.9
"2010-12-31 00:45:30",469832,9.62,81.8,2.313,0.842,-6.424,94.39881,-14.95,-13.77,89.6,0,108.7,13.97,-14.25,43.8
"2010-12-31 00:46:00",469833,9.28,76.17,3.036,0.604,-6.153,94.39709,-14.95,-13.78,89.5,0,108.6,13.97,-14.25,38.2
"2010-12-31 00:46:30",469834,9.45,78.64,3.989,0.53,-6.237,94.39655,-14.95,-13.77,89.5,0,108.7,13.97,-14.25,40.6
"2010-12-31 00:47:00",469835,9.22,81.4,2.755,0.712,-6.412,94.39628,-14.95,-13.79,89.5,0,108.7,13.97,-14.25,43.4
"2010-12-31 00:47:30",469836,9.31,81.8,3.138,0.623,-6.451,94.38255,-14.99,-13.8,89.5,0,108.7,13.97,-14.29,43.8
"2010-12-31 00:48:00",469837,9.38,80.8,3.242,0.512,-6.466,94.37037,-15.02,-13.82,89.4,0,108.7,13.97,-14.32,42.8
"2010-12-31 00:48:30",469838,9.35,82,3.619,0.745,-6.824,94.36406,-15.04,-13.82,89.4,0,108.7,13.97,-14.34,44.0
"2010-12-31 00:49:00",469839,9.78,81.9,2.376,0.781,-6.796,94.34337,-15.09,-13.84,89.3,0,108.7,13.97,-14.39,43.9
"2010-12-31 00:49:30",469840,9.56,81.3,3.961,0.674,-6.557,94.32851,-15.13,-13.87,89.1,0,108.7,13.97,-14.43,43.3
"2010-12-31 00:50:00",469841,9.27,79.98,2.776,0.674,-6.593,94.31858,-15.15,-13.9,89,0,108.7,13.97,-14.45,42.0
"2010-12-31 00:50:30",469842,10,82.8,3.614,0.764,-6.964,94.31001,-15.17,-13.92,89.1,0,108.7,13.97,-14.47,44.8
"2010-12-31 00:51:00",469843,8.69,79.88,4.549,0.732,-6.557,94.29585,-15.21,-13.97,89,0,108.7,13.97,-14.51,41.9
"2010-12-31 00:51:30",469844,8.97,77.61,2.721,0.715,-6.442,94.29839,-15.2,-13.98,89.1,0,108.7,13.97,-14.50,39.6
"2010-12-31 00:52:00",469845,9.6,77.39,1.633,0.666,-6.741,94.29847,-15.2,-13.98,89.2,0,108.6,13.98,-14.50,39.4
"2010-12-31 00:52:30",469846,9.25,76.85,3.356,0.733,-6.59,94.29499,-15.21,-13.97,89.2,0,108.7,13.98,-14.51,38.8
"2010-12-31 00:53:00",469847,8.94,76.36,3.841,0.792,-6.592,94.29524,-15.21,-14,89.2,0,108.7,13.98,-14.51,38.4
"2010-12-31 00:53:30",469848,9.26,75.52,3.309,0.655,-6.51,94.29926,-15.2,-14,89.3,0,108.7,13.97,-14.50,37.5
"2010-12-31 00:54:00",469849,9.69,78.71,4.203,0.594,-6.853,94.29951,-15.2,-14,89.3,0,108.7,13.97,-14.50,40.7
"2010-12-31 00:54:30",469850,9.52,75.93,3.203,0.68,-6.627,94.2947,-15.21,-14,89.3,0,108.7,13.96,-14.51,37.9
"2010-12-31 00:55:00",469851,9.18,76.33,3.406,0.625,-6.576,94.28535,-15.24,-14.03,89.2,0,108.7,13.96,-14.54,38.3
"2010-12-31 00:55:30",469852,9.41,73.43,3.824,0.603,-6.294,94.29354,-15.21,-14.03,89.3,0,108.7,13.96,-14.52,35.4
"2010-12-31 00:56:00",469853,10.08,74.79,3.242,0.469,-6.503,94.29578,-15.21,-14.02,89.4,0,108.6,13.96,-14.51,36.8
"2010-12-31 00:56:30",469854,9.91,73.68,3.778,0.619,-6.414,94.29685,-15.21,-14.01,89.4,0,108.7,13.96,-14.51,35.7
"2010-12-31 00:57:00",469855,10.21,71.92,3.554,0.58,-6.331,94.29742,-15.2,-14.01,89.4,0,108.7,13.96,-14.51,33.9
"2010-12-31 00:57:30",469856,10.82,72.35,3.635,0.533,-6.399,94.30386,-15.19,-14,89.5,0,108.6,13.96,-14.49,34.3
"2010-12-31 00:58:00",469857,10.79,72.34,3.439,0.336,-6.219,94.30531,-15.18,-14.02,89.5,0,108.7,13.97,-14.49,34.3
"2010-12-31 00:58:30",469858,10.83,71.71,3.532,0.635,-6.171,94.30776,-15.18,-13.99,89.5,0,108.7,13.97,-14.48,33.7
"2010-12-31 00:59:00",469859,11.01,72.12,3.507,0.622,-6.187,94.30748,-15.18,-14.01,89.5,0,108.7,13.98,-14.48,34.1
"2010-12-31 00:59:30",469860,10.88,73.18,3.222,0.604,-6.315,94.30546,-15.18,-14.02,89.5,0,108.7,13.98,-14.49,35.2
"2010-12-31 01:00:00",469861,10.8,71.79,2.392,0.586,-6.189,94.30035,-15.2,-14.02,89.5,0,108.7,13.98,-14.50,33.8
"2010-12-31 01:00:30",469862,10.9,71.88,3.074,0.618,-6.272,94.30033,-15.2,-14.01,89.4,0,108.7,13.98,-14.50,33.9
"2010-12-31 01:01:00",469863,10.76,72.64,3.026,0.619,-6.28,94.29692,-15.21,-14.03,89.4,0,108.7,13.98,-14.51,34.6
"2010-12-31 01:01:30",469864,11.11,72.08,3.14,0.634,-6.348,94.2793,-15.25,-14.04,89.3,0,108.7,13.98,-14.55,34.1
"2010-12-31 01:02:00",469865,11.21,72.37,3.148,0.404,-6.453,94.26649,-15.28,-14.04,89.2,0,108.6,13.98,-14.59,34.4
"2010-12-31 01:02:30",469866,10.8,72.2,3.25,0.617,-6.341,94.2591,-15.3,-14.06,89,0,108.6,13.98,-14.60,34.2
"2010-12-31 01:03:00",469867,10.47,70.65,3.675,0.632,-6.243,94.24061,-15.35,-14.09,89,0,108.7,13.98,-14.65,32.7
"2010-12-31 01:03:30",469868,10.43,71.21,4.077,0.561,-6.084,94.23293,-15.37,-14.12,88.9,0,108.7,13.98,-14.67,33.2
"2010-12-31 01:04:00",469869,10.74,71.81,3.266,0.656,-6.219,94.2315,-15.37,-14.14,88.9,0,108.6,13.98,-14.67,33.8
"2010-12-31 01:04:30",469870,10.5,72.31,4.041,0.659,-6.225,94.21757,-15.41,-14.14,88.9,0,108.6,13.98,-14.71,34.3
"2010-12-31 01:05:00",469871,10.7,73.46,3.65,0.615,-6.364,94.20335,-15.44,-14.17,88.8,0,108.6,13.98,-14.75,35.5
"2010-12-31 01:05:30",469872,10.71,73.58,4.089,0.588,-6.36,94.19795,-15.46,-14.18,88.8,0,108.6,13.98,-14.76,35.6
"2010-12-31 01:06:00",469873,10.8,72.02,3.709,0.525,-6.36,94.18486,-15.49,-14.22,88.7,0,108.6,13.98,-14.79,34.0
"2010-12-31 01:06:30",469874,11.09,72.96,3.564,0.599,-6.413,94.17093,-15.53,-14.23,88.7,0,108.6,13.98,-14.83,35.0
"2010-12-31 01:07:00",469875,10.75,71.32,3.906,0.516,-6.258,94.1641,-15.54,-14.25,88.6,0,108.6,13.98,-14.85,33.3
"2010-12-31 01:07:30",469876,10.54,71.55,4.038,0.52,-6.421,94.16269,-15.55,-14.26,88.6,0,108.6,13.98,-14.85,33.6
"2010-12-31 01:08:00",469877,11.22,72.28,3.513,0.401,-6.331,94.1513,-15.58,-14.32,88.6,0,108.6,13.98,-14.88,34.3
"2010-12-31 01:08:30",469878,11.16,71.49,3.796,0.62,-6.56,94.13452,-15.62,-14.32,88.6,0,108.6,13.98,-14.92,33.5
"2010-12-31 01:09:00",469879,11.25,70.26,4.307,0.488,-6.545,94.12968,-15.63,-14.34,88.5,0,108.6,13.98,-14.93,32.3
"2010-12-31 01:09:30",469880,11.11,68.51,3.626,0.628,-6.535,94.11945,-15.66,-14.38,88.5,0,108.6,13.98,-14.96,30.5
"2010-12-31 01:10:00",469881,11.15,69.31,3.167,0.533,-6.464,94.10438,-15.69,-14.38,88.5,0,108.6,13.99,-15.00,31.3
"2010-12-31 01:10:30",469882,11.16,67.25,4,0.545,-6.443,94.1041,-15.7,-14.4,88.5,0,108.6,13.98,-15.00,29.2
"2010-12-31 01:11:00",469883,11.32,68.08,4.275,0.528,-6.578,94.10069,-15.7,-14.41,88.6,0,108.6,13.98,-15.01,30.1
"2010-12-31 01:11:30",469884,11.41,69.19,3.99,0.58,-6.362,94.09557,-15.72,-14.44,88.6,0,108.6,13.98,-15.02,31.2
"2010-12-31 01:12:00",469885,11.54,67.9,3.858,0.552,-6.348,94.09557,-15.72,-14.44,88.6,0,108.6,13.98,-15.02,29.9
"2010-12-31 01:12:30",469886,11.64,66.26,3.61,0.704,-6.202,94.09557,-15.72,-14.46,88.6,0,108.6,13.98,-15.02,28.3
"2010-12-31 01:13:00",469887,11.66,71.02,4.006,0.761,-6.633,94.09528,-15.72,-14.46,88.7,0,108.6,13.98,-15.02,33.0
"2010-12-31 01:13:30",469888,11.79,67.67,3.867,0.574,-6.31,94.08418,-15.75,-14.48,88.6,0,108.6,13.98,-15.05,29.7
"2010-12-31 01:14:00",469889,11.79,67.27,3.523,0.625,-6.229,94.07195,-15.78,-14.5,88.6,0,108.6,13.98,-15.08,29.3
"2010-12-31 01:14:30",469890,11.71,66.11,3.587,0.584,-6.118,94.08048,-15.76,-14.5,88.7,0,108.6,13.98,-15.06,28.1
"2010-12-31 01:15:00",469891,11.61,65.9,3.635,0.641,-5.914,94.09528,-15.72,-14.49,88.8,0,108.6,13.98,-15.02,27.9
"2010-12-31 01:15:30",469892,11.6,65.98,4.113,0.735,-6.136,94.09557,-15.72,-14.5,88.9,0,108.6,13.98,-15.02,28.0
"2010-12-31 01:16:00",469893,11.23,65.87,3.565,0.518,-6.006,94.09557,-15.72,-14.49,89,0,108.6,13.98,-15.02,27.9
"2010-12-31 01:16:30",469894,10.82,66.17,4.037,0.548,-6.073,94.09755,-15.71,-14.49,89,0,108.6,13.99,-15.02,28.2
"2010-12-31 01:17:00",469895,11.24,66.17,4.09,0.726,-6.413,94.10178,-15.7,-14.47,89,0,108.6,13.99,-15.01,28.2
"2010-12-31 01:17:30",469896,11.28,66.06,3.69,0.655,-6.165,94.09583,-15.72,-14.47,89,0,108.6,13.99,-15.02,28.1
"2010-12-31 01:18:00",469897,11.52,66.14,3.632,0.581,-6.351,94.09583,-15.72,-14.48,88.9,0,108.6,13.99,-15.02,28.1
"2010-12-31 01:18:30",469898,11.18,67.97,3.992,0.733,-6.397,94.08186,-15.75,-14.5,88.8,0,108.6,13.99,-15.06,30.0
"2010-12-31 01:19:00",469899,11.16,67.4,3.937,0.766,-6.39,94.0704,-15.78,-14.5,88.7,0,108.6,13.99,-15.08,29.4
"2010-12-31 01:19:30",469900,11.23,66.62,2.939,0.714,-6.255,94.06367,-15.8,-14.52,88.7,0,108.6,13.99,-15.10,28.6
"2010-12-31 01:20:00",469901,11.37,69.32,2.368,0.64,-6.28,94.0625,-15.8,-14.53,88.7,0,108.6,13.99,-15.11,31.3
"2010-12-31 01:20:30",469902,11.34,68.8,3.958,0.767,-6.315,94.06191,-15.8,-14.54,88.6,0,108.6,13.99,-15.11,30.8
"2010-12-31 01:21:00",469903,11.54,68.51,3.699,0.633,-6.419,94.04995,-15.83,-14.56,88.6,0,108.6,13.99,-15.14,30.5
"2010-12-31 01:21:30",469904,10.98,68.69,3.519,0.804,-6.56,94.03629,-15.87,-14.59,88.5,0,108.6,13.99,-15.17,30.7
"2010-12-31 01:22:00",469905,10.97,67.03,3.46,0.702,-6.425,94.03342,-15.87,-14.59,88.5,0,108.6,13.99,-15.18,29.0
"2010-12-31 01:22:30",469906,11.08,68.78,2.923,0.754,-6.642,94.03158,-15.88,-14.62,88.5,0,108.6,13.99,-15.18,30.8
"2010-12-31 01:23:00",469907,10.84,70.55,2.72,0.827,-6.9,94.02346,-15.9,-14.61,88.5,0,108.6,13.99,-15.20,32.6
"2010-12-31 01:23:30",469908,11.26,70.04,3.184,0.788,-6.642,94.00642,-15.94,-14.63,88.5,0,108.6,13.99,-15.25,32.0
"2010-12-31 01:24:00",469909,11.36,70.69,3.593,0.499,-6.431,93.99917,-15.96,-14.65,88.4,0,108.6,13.99,-15.27,32.7
"2010-12-31 01:24:30",469910,10.5,69.9,2.825,0.827,-6.735,93.99771,-15.97,-14.7,88.4,0,108.6,13.99,-15.27,31.9
"2010-12-31 01:25:00",469911,10.66,69.37,3.132,0.842,-6.612,93.99825,-15.96,-14.69,88.4,0,108.6,13.99,-15.27,31.4
"2010-12-31 01:25:30",469912,10.92,69.73,3.63,0.681,-6.458,93.99852,-15.96,-14.71,88.5,0,108.6,13.99,-15.27,31.7
"2010-12-31 01:26:00",469913,11.13,71.87,2.542,0.69,-6.71,93.99986,-15.96,-14.7,88.5,0,108.6,13.99,-15.26,33.9
"2010-12-31 01:26:30",469914,10.95,70.54,3.681,0.682,-6.627,93.99632,-15.97,-14.73,88.5,0,108.6,13.99,-15.27,32.5
"2010-12-31 01:27:00",469915,10.89,71.17,2.854,0.692,-6.755,93.99627,-15.97,-14.73,88.5,0,108.6,13.99,-15.27,33.2
"2010-12-31 01:27:30",469916,11.14,71.23,3.869,0.762,-6.834,93.99456,-15.97,-14.75,88.5,0,108.6,13.99,-15.28,33.2
"2010-12-31 01:28:00",469917,11.02,72.12,2.421,0.7,-6.704,93.98674,-15.99,-14.74,88.5,0,108.6,13.99,-15.30,34.1
"2010-12-31 01:28:30",469918,11.1,73.14,3.863,0.668,-6.579,93.98672,-15.99,-14.74,88.6,0,108.6,13.99,-15.30,35.1
"2010-12-31 01:29:00",469919,10.81,74.67,2.309,0.697,-6.819,93.98939,-15.99,-14.78,88.6,0,108.6,13.99,-15.29,36.7
"2010-12-31 01:29:30",469920,10.81,73.62,3.873,0.628,-6.823,93.98323,-16,-14.77,88.5,0,108.6,13.99,-15.31,35.6
"2010-12-31 01:30:00",469921,10.42,75.34,1.948,0.76,-6.715,93.98676,-15.99,-14.78,88.6,0,108.6,13.99,-15.30,37.3
"2010-12-31 01:30:30",469922,9.8,76.02,3.445,0.687,-6.867,93.99279,-15.98,-14.78,88.6,0,108.6,13.99,-15.28,38.0
"2010-12-31 01:31:00",469923,9.43,76.41,3.991,0.838,-6.976,93.99443,-15.97,-14.77,88.7,0,108.6,13.99,-15.28,38.4
"2010-12-31 01:31:30",469924,9.32,78.7,3.772,0.873,-6.956,93.99687,-15.97,-14.8,88.7,0,108.6,13.99,-15.27,40.7
"2010-12-31 01:32:00",469925,8.87,79.18,3.387,0.747,-6.865,93.99577,-15.97,-14.76,88.7,0,108.6,13.99,-15.27,41.2
"2010-12-31 01:32:30",469926,8.07,80.4,7.057,0.75,-7.072,93.99826,-15.96,-14.78,88.7,0,108.6,13.99,-15.27,42.4
"2010-12-31 01:33:00",469927,8.48,79.34,3.597,0.671,-7.298,93.9985,-15.96,-14.79,88.8,0,108.6,13.99,-15.27,41.3
"2010-12-31 01:33:30",469928,7.974,80.7,3.922,0.649,-7.329,93.99622,-15.97,-14.8,88.8,0,108.6,13.99,-15.27,42.7
"2010-12-31 01:34:00",469929,8.77,79.79,3.904,0.595,-7.379,93.9939,-15.98,-14.8,88.8,0,108.6,14,-15.28,41.8
"2010-12-31 01:34:30",469930,8.53,76.97,4.244,0.599,-7.384,93.9908,-15.98,-14.81,88.8,0,108.6,14,-15.29,39.0
"2010-12-31 01:35:00",469931,8.5,76.83,4.072,0.72,-7.558,93.98911,-15.99,-14.8,88.8,0,108.6,14,-15.29,38.8
"2010-12-31 01:35:30",469932,9.48,71.7,3.178,0.654,-7.652,93.98818,-15.99,-14.83,88.7,0,108.6,14,-15.29,33.7
"2010-12-31 01:36:00",469933,9.68,72.88,2.631,0.63,-7.322,93.98337,-16,-14.82,88.7,0,108.6,14,-15.31,34.9
"2010-12-31 01:36:30",469934,9.32,70.67,3.169,0.934,-7.513,93.98281,-16,-14.83,88.7,0,108.6,14,-15.31,32.7
"2010-12-31 01:37:00",469935,9.01,76.95,4.635,0.67,-7.393,93.97598,-16.02,-14.84,88.6,0,108.6,14,-15.33,38.9
"2010-12-31 01:37:30",469936,8.57,75.72,3.844,0.858,-7.71,93.96941,-16.04,-14.86,88.7,0,108.6,14,-15.34,37.7
"2010-12-31 01:38:00",469937,8.33,71.63,3.184,0.697,-7.452,93.96029,-16.06,-14.86,88.7,0,108.6,14,-15.37,33.6
"2010-12-31 01:38:30",469938,8.94,70.17,4.009,0.665,-7.451,93.95346,-16.08,-14.89,88.6,0,108.6,14,-15.38,32.2
"2010-12-31 01:39:00",469939,8.49,71.57,2.959,0.727,-7.489,93.95146,-16.08,-14.88,88.7,0,108.6,14,-15.39,33.6
"2010-12-31 01:39:30",469940,8.7,69.95,3.768,0.72,-7.426,93.95113,-16.08,-14.9,88.7,0,108.6,14,-15.39,31.9
"2010-12-31 01:40:00",469941,8.51,72.07,3.186,0.863,-7.328,93.95191,-16.08,-14.9,88.7,0,108.6,14,-15.39,34.1
"2010-12-31 01:40:30",469942,9.29,68.52,3.626,0.697,-7.454,93.95171,-16.08,-14.91,88.8,0,108.6,14,-15.39,30.5
"2010-12-31 01:41:00",469943,9.01,67.75,2.98,0.779,-7.537,93.9565,-16.07,-14.9,88.8,0,108.6,14,-15.37,29.8
"2010-12-31 01:41:30",469944,9.08,66.46,4.213,0.678,-7.363,93.95364,-16.08,-14.88,88.8,0,108.6,14,-15.38,28.5
"2010-12-31 01:42:00",469945,8.94,64.4,4.434,0.559,-7.386,93.95086,-16.08,-14.9,88.7,0,108.6,14,-15.39,26.4
"2010-12-31 01:42:30",469946,9.54,68.41,3.89,0.75,-7.605,93.95137,-16.08,-14.91,88.7,0,108.6,14,-15.39,30.4
"2010-12-31 01:43:00",469947,9.93,69.11,2.783,0.753,-7.581,93.94225,-16.11,-14.92,88.6,0,108.6,14,-15.41,31.1
"2010-12-31 01:43:30",469948,9.77,68.93,3.231,0.72,-7.39,93.92488,-16.15,-14.93,88.5,0,108.6,14,-15.46,30.9
"2010-12-31 01:44:00",469949,9.84,69.66,2.321,0.646,-7.046,93.91808,-16.17,-14.96,88.5,0,108.6,14,-15.47,31.7
"2010-12-31 01:44:30",469950,10.02,67.24,3.545,0.473,-7.116,93.91759,-16.17,-14.97,88.5,0,108.6,14,-15.47,29.2
"2010-12-31 01:45:00",469951,10.33,67.03,3.981,0.438,-6.848,93.92496,-16.15,-14.97,88.6,0,108.6,14,-15.46,29.0
"2010-12-31 01:45:30",469952,10.49,67.46,2.76,0.721,-7.177,93.9239,-16.15,-14.98,88.6,0,108.6,14,-15.46,29.5
"2010-12-31 01:46:00",469953,10.55,65.66,2.976,0.479,-6.968,93.92418,-16.15,-14.97,88.7,0,108.6,14,-15.46,27.7
"2010-12-31 01:46:30",469954,10.34,64.5,2.676,0.719,-7.05,93.93271,-16.13,-14.96,88.7,0,108.6,14,-15.44,26.5
"2010-12-31 01:47:00",469955,10.45,64.07,3.097,0.773,-6.937,93.94294,-16.1,-14.94,88.8,0,108.6,14,-15.41,26.1